User: anonymous   Login
Location: LDNL
(36.4545°S, 141.6685°E)
Time: 06:40:46
(UTC+10:00)
Language:

DELFI C3 - Orbit

View from above orbital plane
View from above orbital plane
View from above satellite
View from above satellite

Ground track
Ground track

The orbit data is extracted from the following two-line orbital elements,

1 32789U 08021G   22267.04333023  .00013533  00000-0  71044-3 0  9991
2 32789  97.3347 289.8851 0009012 353.8610   6.2511 15.15804461786857
Epoch (UTC): 24 September 2022 01:02:23
Eccentricity: 0.0009012
inclination: 97.3347°
perigee height: 512 km
apogee height: 525 km
right ascension of ascending node: 289.8851°
argument of perigee: 353.8610°
revolutions per day: 15.15804461
mean anomaly at epoch: 6.2511°
orbit number at epoch: 78685

The dashed part of the orbit path shows where the satellite is in the earth's shadow,  

DLR